Simultaneous Nadir Overpasses (SNOs) Predictions

Prediction of SNOs between GOES-16 and METOP-B Satellite Orbit:

Table of predicted SNOs for the next 14.0 days since TLE Epoch: 12/23/2023
Index Date Time (GOES-16) GOES-16 Lat,Lon METOP-B Lat,Lon Distance(km) Time Diff (sec)
1 12/23/2023 14:30:52 -0.04, -75.23 0.08, -75.68 52.49 80
2 12/26/2023 02:29:21 0.04, -75.20 0.02, -75.33 14.30 80
3 12/28/2023 14:25:01 -0.03, -75.24 -0.11, -74.94 34.74 80
4 12/30/2023 02:46:45 0.03, -75.23 -0.94, -79.56 493.16 80
5 12/31/2023 02:23:29 0.03, -75.24 0.17, -74.58 75.34 80
6 01/01/2024 14:42:25 -0.02, -75.29 0.82, -79.17 442.19 80
7 01/02/2024 14:21:49 -0.02, -75.30 -0.30, -74.19 127.01 80
8 01/04/2024 02:43:33 0.02, -75.30 -0.74, -78.81 399.35 80
9 01/05/2024 02:20:15 0.02, -75.32 0.32, -73.82 169.98 80
